This is the latest recevied weather packets stored in our database for station/object W9KHP-1. If no packets are shown the sender has not sent any weather packets the latest 10 day(s).
| Time | Temp. | Humidity | Pressure | Rain* | Wind** | Luminosity | Snow |
|---|---|---|---|---|---|---|---|
| 1777748967 | 10° C | 81% | 1020.5 hPa | 0 mm | - | 272 W/m² | - |
| 1777748664 | 10° C | 82% | 1020.6 hPa | 0 mm | - | 167 W/m² | - |
| 1777748360 | 10° C | 80% | 1020.7 hPa | 0 mm | - | 138 W/m² | - |
| 1777748055 | 10° C | 80% | 1020.7 hPa | 0 mm | - | 207 W/m² | - |
| 1777747753 | 10.56° C | 85% | 1020.8 hPa | 0 mm | - | 238 W/m² | - |
| 1777747448 | 10° C | 86% | 1020.7 hPa | 0 mm | - | 241 W/m² | - |
| 1777747145 | 10° C | 86% | 1020.8 hPa | 0 mm | - | 261 W/m² | - |
| 1777746841 | 9.44° C | 89% | 1020.9 hPa | 0 mm | - | 413 W/m² | - |
| 1777746536 | 9.44° C | 91% | 1020.8 hPa | 0 mm | - | 361 W/m² | - |
| 1777746232 | 9.44° C | 93% | 1021 hPa | 0 mm | - | 215 W/m² | - |
| 1777745928 | 8.89° C | 93% | 1021.1 hPa | 0 mm | - | 150 W/m² | - |
| 1777745627 | 9.44° C | 93% | 1021 hPa | 0 mm | - | 169 W/m² | - |
| 1777745325 | 8.89° C | 94% | 1020.9 hPa | 0 mm | - | 272 W/m² | - |
| 1777745022 | 8.89° C | 94% | 1021.2 hPa | 0 mm | - | 158 W/m² | - |
| 1777744717 | 8.89° C | 94% | 1021.2 hPa | 0 mm | - | 109 W/m² | - |
| 1777744412 | 8.89° C | 95% | 1021.2 hPa | 0 mm | - | 124 W/m² | - |
| 1777744109 | 8.33° C | 94% | 1021.5 hPa | 0 mm | - | 104 W/m² | - |
| 1777743806 | 8.33° C | 94% | 1021.4 hPa | 0 mm | - | 86 W/m² | - |
| 1777743503 | 8.33° C | 94% | 1021.3 hPa | 0 mm | - | 88 W/m² | - |
| 1777743200 | 8.33° C | 94% | 1021.2 hPa | 0 mm | - | 78 W/m² | - |
| 1777742898 | 8.33° C | 94% | 1021.3 hPa | 1.27 mm | - | 85 W/m² | - |
| 1777742594 | 8.33° C | 94% | 1021.5 hPa | 1.27 mm | - | 100 W/m² | - |
| 1777742290 | 8.33° C | 95% | 1021.5 hPa | 0 mm | - | 104 W/m² | - |
| 1777741987 | 8.33° C | 94% | 1021.3 hPa | 1.78 mm | - | 96 W/m² | - |
| 1777741684 | 8.33° C | 94% | 1021.3 hPa | 1.78 mm | - | 64 W/m² | - |
* Rain latest hour (hover to see other rain measurements)
** Current wind speed in m/s (hover to see current wind gust speed)